[[{"header":{"parameterUnit":"m.s-1","parameterCategory":1,"la1":30.2991,"la2":30.254,"lo1":-89.0895,"lo2":-89.0444,"dy":0.0017,"dx":0.0017,"nx":28,"ny":28,"refTime":"2024-09-02T21:00:00:Z","depth":0,"parameterNumber":2,"parameterNumberName":"U-component_of_WINDS"},"data":[0,0,0,0,0,0,0,0,0,0,0,0,0,0,0,0,0,0,0,0,0,0,0,0,0,0,0,0,0,0,0,0,0,0,0,0,0,0,0,0,0,0,0,0,0,0,0,0,0,0,0,0,0,0,0,0,0,0,-3.5207,-3.5207,0,-3.5216,-3.5217,-3.5217,-3.5145,-3.5143,-3.5141,-3.5139,-3.5153,-3.5155,-3.5157,0,0,0,0,0,0,0,0,0,0,0,0,0,-3.5133,-3.5134,-3.5207,-3.5207,-3.5207,-3.5216,-3.5217,-3.5217,-3.5145,-3.5143,-3.514,-3.5138,-3.5152,-3.5155,-3.5158,0,0,0,0,0,0,0,0,0,0,0,0,0,-3.5156,-3.5135,-3.5207,-3.5172,-3.5169,-3.5216,-3.5217,-3.5217,-3.5146,-3.5142,-3.5139,-3.5137,-3.5151,-3.5155,-3.5158,-3.524,0,0,-3.5168,-3.517,0,0,0,0,0,0,0,0,-3.5155,-3.5159,-3.5177,-3.5175,-3.5171,-3.5176,-3.5196,-3.5225,-3.5146,-3.5155,-3.5139,-3.5135,-3.5163,-3.5166,-3.5174,-3.5241,-3.5241,-3.5169,-3.5171,-3.5172,-3.5173,0,0,0,0,0,0,0,-3.5153,-3.5158,-3.5211,-3.5178,-3.5174,-3.5158,-3.5158,-3.5201,-3.5176,-3.5154,-3.5148,-3.515,-3.5161,-3.5171,-3.5174,-3.5241,-3.5169,-3.5172,-3.5174,-3.5175,-3.538,-3.5383,0,0,0,0,0,0,-3.5156,-3.5157,-3.521,-3.5211,-3.5155,-3.5162,-3.5162,-3.5178,-3.5175,-3.5172,-3.5153,-3.5147,-3.5167,-3.517,-3.5174,-3.5272,-3.5172,-3.5175,-3.5177,-3.5376,-3.5381,-3.5384,0,0,0,0,0,0,-3.5154,-3.5161,-3.521,-3.5183,-3.5188,-3.5167,-3.5185,-3.518,-3.5189,-3.5175,-3.5171,-3.5167,-3.5165,-3.5169,-3.5225,-3.5271,-3.5177,-3.518,-3.5372,-3.5378,-3.5382,-3.5467,0,0,0,0,0,0,-3.5152,-3.5161,-3.519,-3.5184,-3.5189,-3.5258,-3.5188,-3.5182,-3.5195,-3.5187,-3.5187,-3.5184,-3.5163,-3.522,-3.5228,-3.5274,-3.5183,-3.5368,-3.5375,-3.5381,-3.546,-3.5475,-3.5487,0,0,0,0,0,-3.515,-3.5214,-3.5192,-3.5199,-3.5225,-3.5261,-3.5264,-3.5237,-3.5199,-3.5229,-3.5221,-3.5184,-3.5265,-3.5226,-3.5235,-3.5283,-3.5365,-3.5373,-3.538,-3.5454,-3.5472,-3.5487,0,0,0,0,0,0,-3.5226,-3.5212,-3.5188,-3.5251,-3.5258,-3.5249,-3.5286,-3.5256,-3.5275,-3.5267,-3.5234,-3.5235,-3.5296,-3.5295,-3.5252,-3.5364,-3.5309,-3.5319,-3.5362,-3.5379,-3.5392,-3.5391,-3.5185,0,0,0,0,0,-3.525,-3.5279,-3.5266,-3.5323,-3.5328,-3.5307,-3.5321,-3.53,-3.5306,-3.5309,-3.5304,-3.5313,-3.5341,-3.536,-3.5385,-3.546,-3.5461,-3.5498,-3.5512,-3.5523,-3.5531,-3.5575,-3.5592,-3.5409,-3.5409,-3.5409,0,0,-3.53,-3.5296,-3.5316,-3.5338,-3.5341,-3.5374,-3.5309,-3.5346,-3.5371,-3.5315,-3.5366,-3.5364,-3.5373,-3.5439,-3.5468,-3.544,-3.5582,-3.5532,-3.5541,-3.5544,-3.5584,-3.5602,-3.5617,-3.5415,-3.5414,-3.5413,0,0,-3.5408,-3.5407,-3.5456,-3.5461,-3.5466,-3.5452,-3.5464,-3.5461,-3.5456,-3.5508,-3.5468,-3.5498,-3.5546,-3.5554,-3.5565,-3.5681,-3.5649,-3.569,-3.576,-3.5802,-3.5817,-3.5829,-3.5873,-3.5888,-3.5699,-3.5699,-3.5699,0,-3.547,-3.5515,-3.5485,-3.5525,-3.5537,-3.5488,-3.5539,-3.5546,-3.5559,-3.557,-3.5538,-3.56,-3.5602,-3.5671,-3.57,-3.5709,-3.5724,-3.5689,-3.5817,-3.5829,-3.5841,-3.5882,-3.5898,-3.5704,-3.5704,-3.5703,-3.5703,0,-3.5592,-3.5625,-3.5664,-3.5678,-3.5695,-3.5741,-3.5719,-3.5741,-3.5719,-3.571,-3.5765,-3.5766,-3.5792,-3.5807,-3.5786,-3.5875,-3.5857,-3.5822,-3.5766,-3.5864,-3.5902,-3.5917,-3.5711,-3.571,-3.5708,-3.5707,0,0,-3.5745,-3.5744,-3.5759,-3.5766,-3.5771,-3.5796,-3.5842,-3.5866,-3.5886,-3.5898,-3.5937,-3.598,-3.5949,-3.5961,-3.5941,-3.5979,-3.6074,-3.5939,-3.5939,-3.5965,-3.6174,-3.6201,-3.6219,-3.6053,-3.6056,-3.6058,-3.6174,0,-3.5852,-3.5926,-3.5902,-3.5978,-3.601,-3.5966,-3.6006,-3.6015,-3.6008,-3.6036,-3.603,-3.6062,-3.6017,-3.6024,-3.6059,-3.6054,-3.6115,-3.6046,-3.6091,-3.6093,-3.6089,-3.6239,-3.6266,-3.6375,-3.6189,-3.6191,-3.6193,0,-3.5984,-3.6002,-3.6081,-3.6083,-3.6096,-3.6131,-3.6154,-3.618,-3.6191,-3.6184,-3.62,-3.6173,-3.6221,-3.6165,-3.6232,-3.6185,-3.6203,-3.6204,-3.6208,-3.621,-3.6148,-3.6247,-3.6409,-3.6426,-3.6216,-3.6214,-3.6212,0,-3.6089,-3.6133,-3.6187,-3.6195,-3.6198,-3.6225,-3.6228,-3.6235,-3.6252,-3.6273,-3.6284,-3.631,-3.6325,-3.6347,-3.633,-3.6291,-3.6401,-3.6343,-3.6398,-3.6399,-3.6422,-3.6421,-3.6591,-3.6434,-3.6434,-3.6433,-3.6433,0,-3.621,-3.6261,-3.6235,-3.6268,-3.6325,-3.6299,-3.6357,-3.6355,-3.6363,-3.6397,-3.6362,-3.6395,-3.6371,-3.6403,-3.6391,-3.645,-3.6456,-3.6454,-3.645,-3.6457,-3.6457,-3.6467,-3.646,-3.6438,-3.6437,-3.6436,-3.6435,0,-3.6336,-3.6321,-3.6377,-3.6376,-3.6378,-3.642,-3.642,-3.6453,-3.6445,-3.6489,-3.6498,-3.6487,-3.6524,-3.651,-3.6549,-3.6541,-3.6616,-3.6602,-3.6612,-3.6608,-3.6665,-3.666,-3.6847,-3.6871,-3.6698,-3.67,-3.6701,0,-3.6414,-3.6452,-3.6456,-3.6476,-3.6481,-3.6514,-3.6532,-3.6509,-3.653,-3.6547,-3.6578,-3.6612,-3.6637,-3.6699,-3.6696,-3.6726,-3.6713,-3.6777,-3.6718,-3.6725,-3.6716,-3.6714,-3.6719,-3.6789,-3.6791,-3.6792,-3.6793,0,-3.6554,-3.6546,-3.6571,-3.6597,-3.6619,-3.6638,-3.6653,-3.6673,-3.6651,-3.6677,-3.6713,-3.6733,-3.6774,-3.6809,-3.6838,-3.6843,-3.6817,-3.6813,-3.6827,-3.6834,-3.6839,-3.6839,-3.6645,-3.6808,-3.6806,-3.6805,-3.6805,-3.6804,-3.6659,-3.6692,-3.6701,-3.6732,-3.6742,-3.6759,-3.679,-3.6787,-3.6817,-3.6847,-3.6833,-3.6877,-3.6891,-3.6926,-3.6936,-3.6972,-3.6947,-3.6968,-3.6973,-3.6979,-3.6987,-3.6834,-3.6977,-3.6976,-3.6976,-3.6976,-3.6975,0,-3.6798,-3.6802,-3.6832,-3.6855,-3.6882,-3.6853,-3.687,-3.6895,-3.6933,-3.6947,-3.6974,-3.7018,-3.7053,-3.7054,-3.7087,-3.7116,-3.7105,-3.7126,-3.7123,-3.7126,-3.7006,-3.699,-3.7135,-3.7135,-3.7135,-3.7135,-3.7135,-3.7134,-3.6873,-3.6929,-3.6922,-3.6983,-3.6988,-3.7029,-3.7042,-3.7058,-3.707,-3.7121,-3.7149,-3.7149,-3.716,-3.7194,-3.7226,-3.7226,-3.724,-3.7266,-3.7262,-3.715,-3.7134,-3.7119,-3.7104,-3.727,-3.727,-3.7379,-3.738,-3.738]},{"header":{"parameterUnit":"m.s-1","parameterCategory":1,"la1":30.2991,"la2":30.254,"lo1":-89.0895,"lo2":-89.0444,"dy":0.0017,"dx":0.0017,"nx":28,"ny":28,"refTime":"2024-09-02T21:00:00:Z","depth":0,"parameterNumber":3,"parameterNumberName":"V-component_of_WINDS"},"data":[0,0,0,0,0,0,0,0,0,0,0,0,0,0,0,0,0,0,0,0,0,0,0,0,0,0,0,0,0,0,0,0,0,0,0,0,0,0,0,0,0,0,0,0,0,0,0,0,0,0,0,0,0,0,0,0,0,0,1.8385,1.8385,0,1.8466,1.8467,1.8467,1.8531,1.8532,1.8532,1.8533,1.861,1.8612,1.8613,0,0,0,0,0,0,0,0,0,0,0,0,0,1.828,1.8281,1.8384,1.8386,1.8387,1.8465,1.8467,1.8468,1.8531,1.8532,1.8533,1.8533,1.861,1.8612,1.8613,0,0,0,0,0,0,0,0,0,0,0,0,0,1.8339,1.8282,1.8384,1.8428,1.8433,1.8465,1.8467,1.8468,1.8531,1.8532,1.8533,1.8534,1.8609,1.8611,1.8614,1.8608,0,0,1.862,1.8621,0,0,0,0,0,0,0,0,1.8336,1.8343,1.842,1.8425,1.843,1.8489,1.8458,1.8515,1.8531,1.8493,1.8533,1.8534,1.8569,1.8574,1.8587,1.8612,1.8615,1.862,1.8622,1.8623,1.8623,0,0,0,0,0,0,0,1.8332,1.834,1.8416,1.8421,1.8427,1.8442,1.8451,1.8469,1.8524,1.8497,1.8501,1.851,1.8572,1.8585,1.859,1.8616,1.862,1.8622,1.8624,1.8625,1.8639,1.8638,0,0,0,0,0,0,1.8321,1.8336,1.8414,1.8419,1.8385,1.8443,1.8453,1.8469,1.8525,1.8534,1.851,1.8513,1.8581,1.8587,1.8593,1.8589,1.8623,1.8625,1.8626,1.864,1.8639,1.8638,0,0,0,0,0,0,1.8319,1.8328,1.8411,1.8379,1.8391,1.8444,1.8461,1.847,1.8484,1.8535,1.8544,1.8513,1.8582,1.859,1.8604,1.8592,1.8626,1.8628,1.8641,1.8639,1.8638,1.8582,0,0,0,0,0,0,1.8316,1.8326,1.8326,1.8378,1.8392,1.8422,1.846,1.8471,1.8488,1.8494,1.8541,1.8549,1.8583,1.86,1.8606,1.8596,1.8629,1.8642,1.864,1.8638,1.8585,1.8578,1.8573,0,0,0,0,0,1.8312,1.8306,1.8326,1.8335,1.8393,1.8421,1.8429,1.8469,1.8487,1.8486,1.8519,1.8548,1.8593,1.8601,1.8608,1.8599,1.8643,1.8641,1.8639,1.8587,1.858,1.8573,0,0,0,0,0,0,1.8249,1.8313,1.8336,1.8347,1.8379,1.8432,1.8432,1.846,1.8485,1.8489,1.8537,1.8547,1.8556,1.8579,1.8587,1.8596,1.8622,1.8621,1.858,1.8573,1.8568,1.8561,1.8631,0,0,0,0,0,1.8236,1.8256,1.8311,1.8315,1.833,1.8378,1.8392,1.8421,1.8454,1.8467,1.8501,1.853,1.8551,1.8564,1.8586,1.8589,1.8599,1.8586,1.858,1.8575,1.8573,1.8575,1.8569,1.8631,1.8631,1.8631,0,0,1.821,1.8248,1.8257,1.8304,1.8331,1.8348,1.8389,1.8405,1.8418,1.8469,1.8485,1.851,1.8547,1.8555,1.856,1.8574,1.8559,1.8572,1.8568,1.8569,1.8572,1.8566,1.8561,1.8629,1.8629,1.863,0,0,1.8172,1.8203,1.821,1.8237,1.8279,1.8312,1.8313,1.8363,1.8382,1.8399,1.8438,1.8453,1.8488,1.8512,1.8529,1.85,1.8527,1.8506,1.8475,1.8477,1.8472,1.8468,1.8456,1.8451,1.8505,1.8505,1.8504,0,1.8134,1.8163,1.821,1.8224,1.8243,1.8292,1.8299,1.8322,1.8368,1.8379,1.8395,1.844,1.8468,1.8482,1.8476,1.8488,1.849,1.85,1.8469,1.8465,1.8462,1.8451,1.8447,1.8502,1.8502,1.8502,1.8502,0,1.8113,1.8133,1.8133,1.8178,1.8197,1.8207,1.8254,1.8267,1.8295,1.8325,1.8341,1.8376,1.8406,1.8412,1.8439,1.843,1.8437,1.846,1.8487,1.8453,1.8443,1.8439,1.8497,1.8498,1.8499,1.85,0,0,1.8035,1.8108,1.8107,1.8127,1.8178,1.8193,1.8205,1.8236,1.8245,1.8276,1.8285,1.8315,1.8337,1.8356,1.8386,1.8387,1.836,1.841,1.8412,1.8398,1.8351,1.8332,1.8326,1.838,1.8379,1.8379,1.8347,0,1.8003,1.8029,1.8072,1.8083,1.8101,1.8149,1.8159,1.819,1.8218,1.8236,1.8268,1.8287,1.8316,1.8327,1.8331,1.8363,1.8351,1.8366,1.8387,1.8387,1.8374,1.8322,1.8301,1.827,1.8344,1.8344,1.8343,0,1.7969,1.7998,1.8012,1.8061,1.807,1.8078,1.811,1.8127,1.8163,1.8183,1.8205,1.8238,1.8252,1.8277,1.8295,1.8304,1.8316,1.8333,1.8333,1.8334,1.8361,1.832,1.8261,1.8255,1.8338,1.8339,1.8339,0,1.7909,1.7951,1.7965,1.7982,1.8039,1.8044,1.8068,1.8105,1.8121,1.8148,1.8159,1.8187,1.8201,1.8221,1.826,1.8276,1.8273,1.8303,1.8289,1.8288,1.8284,1.8284,1.8224,1.8295,1.8295,1.8295,1.8295,0,1.7867,1.7873,1.7939,1.7946,1.7954,1.8003,1.8008,1.8037,1.8069,1.8082,1.8125,1.8136,1.8188,1.8204,1.8235,1.8244,1.8251,1.8267,1.8274,1.8262,1.8259,1.8268,1.827,1.8294,1.8294,1.8294,1.8295,0,1.78,1.7845,1.7862,1.7916,1.793,1.7933,1.7978,1.7987,1.8019,1.8034,1.8041,1.809,1.8112,1.8153,1.8186,1.8207,1.8208,1.8223,1.8197,1.8201,1.8184,1.8184,1.8127,1.8121,1.8197,1.8196,1.8195,0,1.777,1.7775,1.7831,1.7843,1.7866,1.7886,1.7903,1.7951,1.7967,1.8008,1.8011,1.8037,1.8059,1.8091,1.8129,1.8154,1.8168,1.8147,1.8172,1.8159,1.8165,1.8164,1.8164,1.814,1.8139,1.8138,1.8137,0,1.771,1.7732,1.7756,1.7787,1.7807,1.7833,1.7862,1.7869,1.7924,1.7939,1.7962,1.798,1.8015,1.8039,1.807,1.8092,1.8122,1.8129,1.8127,1.8113,1.8096,1.8103,1.8179,1.813,1.813,1.8131,1.8131,1.8132,1.7659,1.7666,1.7706,1.7731,1.7758,1.7784,1.7795,1.7829,1.785,1.7883,1.791,1.7931,1.7966,1.8011,1.8032,1.8048,1.8062,1.806,1.8058,1.8056,1.805,1.8096,1.8054,1.8054,1.8054,1.8054,1.8055,0,1.76,1.7629,1.7651,1.7691,1.771,1.774,1.7773,1.7786,1.7805,1.7836,1.7858,1.7885,1.7909,1.7949,1.7975,1.798,1.7995,1.7985,1.7984,1.7988,1.8037,1.8035,1.7973,1.7973,1.7973,1.7973,1.7973,1.7973,1.7572,1.7585,1.7612,1.7638,1.7667,1.7689,1.7705,1.7728,1.7754,1.7782,1.7803,1.783,1.7864,1.7893,1.7916,1.7927,1.7933,1.7919,1.7934,1.7978,1.7985,1.7992,1.7991,1.7921,1.7921,1.7884,1.7884,1.7884]}]]